Wind_Speed
25 25 24 24 24 23 23 23 23 22 22 21 21 21 21 20 20 20 20 20 20 20 20 19 19 19 19 18 18 18 17 17 16 16 16 16 17 17 17 17 17 17 17 18 18 18 19 19 19 19 20 20 21 21 22 22 23 24 25 25 25 25 25 24 23 21 20 21 21 20 19 20 20 20 20 20 22 25 29 28 25 25 21 18 19 19 19 19
27 27 26 26 26 25 25 25 24 24 24 23 23 23 23 23 23 22 22 22 22 21 21 21 21 21 20 20 19 19 19 18 18 18 19 19 19 19 19 20 20 20 20 20 20 21 21 21 22 22 22 23 23 24 24 24 25 25 25 25 24 24 23 23 22 20 20 22 22 22 21 21 21 21 21 20 21 25 28 28 26 26 23 19 18 18 19 20
29 28 28 28 27 27 27 26 26 26 26 25 25 25 25 25 25 25 24 24 24 23 23 23 23 22 22 21 21 21 20 20 20 20 21 21 21 21 21 21 21 21 22 22 22 23 23 24 24 24 25 26 26 25 25 24 24 24 23 23 22 22 22 22 22 22 23 24 25 25 24 24 23 22 21 20 21 25 26 25 28 28 25 22 20 18 18 19
31 31 30 30 30 29 29 28 28 28 28 28 27 27 27 27 27 27 27 26 26 25 25 24 24 24 23 23 23 23 22 22 22 22 22 23 23 23 23 23 23 23 23 24 24 25 26 26 26 26 27 27 26 25 23 22 22 22 21 21 21 21 23 24 25 26 26 26 27 27 25 25 25 23 22 20 20 25 25 23 26 28 28 26 24 21 20 20
33 33 32 32 32 31 31 31 30 30 30 30 30 30 29 29 29 29 29 29 28 27 26 26 25 25 25 25 24 24 24 24 24 24 24 24 24 24 24 25 25 25 26 26 26 27 27 28 27 27 26 25 25 23 21 21 21 21 22 22 22 23 26 27 27 28 28 28 27 26 25 25 26 25 24 22 22 24 24 23 24 26 27 28 27 25 23 22
35 35 34 34 34 33 33 33 33 33 32 32 32 32 32 32 32 32 31 30 29 28 27 27 27 26 26 26 26 26 26 26 25 25 26 25 26 26 27 27 28 28 28 28 28 28 27 27 26 25 24 24 23 23 22 22 22 22 24 25 25 25 27 28 28 28 28 27 27 26 26 26 26 25 25 26 25 25 24 24 25 25 26 27 27 27 26 24
38 37 37 36 36 36 36 36 35 35 35 35 35 35 34 34 34 33 32 31 30 29 28 28 28 28 28 27 27 27 28 28 26 27 28 28 29 29 30 30 30 30 30 29 28 27 26 25 25 24 24 24 24 25 24 24 25 25 27 28 27 26 26 27 28 29 29 28 28 26 26 28 26 24 26 28 28 27 26 26 26 26 27 26 26 27 27 26
40 40 39 39 39 38 38 38 38 37 37 36 36 35 34 34 33 32 31 30 30 29 29 29 28 29 28 28 28 28 30 30 28 29 30 30 31 32 32 32 32 31 30 29 28 26 26 26 26 26 26 26 27 27 28 28 28 28 28 27 27 26 27 27 28 30 30 29 29 27 27 28 26 24 26 29 29 28 29 29 28 28 28 27 27 26 27 27
41 41 41 40 40 39 39 38 38 37 37 36 35 35 34 33 33 32 31 30 30 29 29 29 29 29 29 29 29 29 32 32 30 31 32 33 34 34 34 33 32 31 29 29 28 27 27 28 28 29 30 30 30 30 31 31 30 29 28 26 26 27 28 28 29 30 30 29 29 28 26 27 26 25 28 29 28 29 30 30 29 29 28 28 28 27 27 26
42 42 41 41 40 40 39 39 38 38 37 37 36 36 36 35 35 34 33 32 32 32 32 31 31 31 31 31 31 32 35 35 33 34 35 35 35 35 34 33 32 30 29 29 29 29 30 31 31 32 33 32 32 32 32 32 30 29 27 26 27 28 28 29 30 30 30 29 29 27 25 26 25 25 30 30 27 28 30 31 31 30 28 28 27 27 27 26
44 43 43 42 42 42 41 41 40 40 40 39 39 39 39 38 38 37 36 36 35 35 35 35 34 34 34 34 33 34 37 37 36 36 36 36 35 35 34 32 31 31 30 31 31 32 33 34 34 35 35 33 33 32 32 31 30 29 28 27 28 29 28 29 30 30 30 29 29 28 25 25 25 26 30 31 28 28 30 31 31 30 30 28 28 27 26 25
45 45 45 44 44 43 43 43 42 42 42 41 41 41 41 41 40 40 39 39 38 38 38 38 38 37 37 37 36 37 38 37 37 37 36 35 34 34 33 33 32 32 33 33 34 35 36 36 35 35 35 33 32 31 31 30 30 30 30 29 29 30 29 30 31 30 29 30 30 30 26 23 24 27 30 31 31 30 31 31 31 30 30 29 28 27 26 26
45 45 45 45 44 44 44 44 43 43 42 42 41 41 41 41 41 41 40 40 40 40 39 39 39 39 39 37 36 37 37 37 37 36 36 35 35 35 35 35 35 36 36 36 37 37 37 36 35 34 34 32 31 31 31 31 31 32 32 31 30 31 30 30 31 30 30 31 31 31 28 24 24 28 30 32 33 33 32 31 30 30 29 29 29 28 28 27
45 44 44 44 44 44 43 43 43 43 43 43 42 42 41 41 41 40 40 40 40 40 40 40 39 40 39 36 35 36 37 37 37 37 38 37 38 38 38 38 38 39 38 38 37 37 36 35 34 34 33 33 32 33 33 33 33 34 34 33 32 31 30 30 31 30 31 32 32 32 31 26 25 29 32 34 34 32 31 30 30 29 28 28 28 28 28 28
44 44 43 43 43 43 42 42 42 42 42 42 42 42 42 42 42 42 41 41 40 40 40 40 40 40 40 37 37 38 38 39 40 40 41 40 40 40 40 40 40 39 39 38 37 36 35 35 34 34 34 34 35 35 35 36 35 35 36 35 34 33 30 29 29 31 32 33 34 33 33 29 26 30 35 35 33 30 28 28 28 27 27 26 26 27 27 27
44 44 43 43 42 42 41 41 41 41 41 41 42 42 42 42 42 43 43 42 42 42 42 42 42 43 43 40 40 40 41 42 42 42 42 41 41 41 40 40 39 39 38 37 36 36 36 36 36 36 36 36 36 36 37 37 35 35 37 37 35 33 30 28 28 31 33 34 35 34 34 31 28 32 35 34 31 28 26 25 24 24 25 25 25 25 25 25
45 44 44 43 42 41 41 40 40 40 41 41 41 41 42 42 42 42 42 43 43 43 43 43 42 43 43 41 40 40 40 41 41 41 40 40 40 39 39 39 39 38 38 37 37 37 38 38 38 38 38 37 36 36 37 38 36 36 37 37 35 33 32 30 29 32 34 35 35 34 33 32 30 33 34 31 28 26 25 23 22 22 23 24 24 25 25 25
47 46 45 45 44 43 42 42 42 42 42 42 42 42 42 42 42 42 42 42 42 41 41 41 41 41 40 38 38 37 38 38 38 38 39 38 38 39 39 39 39 39 39 39 39 39 40 40 39 39 37 35 34 36 38 38 37 37 37 36 35 33 32 31 31 33 34 34 33 33 33 31 31 32 31 29 27 26 24 22 22 22 23 23 24 24 25 26
48 48 47 46 46 45 45 44 44 44 44 44 44 44 44 44 44 44 43 43 42 41 41 41 40 40 39 38 38 37 37 38 38 39 39 39 39 39 40 40 40 41 40 40 40 40 40 39 39 38 35 34 36 38 39 39 38 37 36 36 36 34 32 31 33 34 34 32 31 32 32 30 29 30 28 27 27 26 24 24 24 24 24 24 24 25 27 28
50 49 49 48 48 47 46 46 46 46 46 46 46 47 47 47 46 46 45 44 43 42 42 41 40 40 40 38 38 38 38 38 39 39 39 39 40 41 41 41 41 41 40 39 40 40 39 40 39 36 35 37 39 40 40 39 38 37 37 36 36 34 33 32 34 34 32 31 29 29 30 28 27 28 27 27 26 26 25 26 27 27 27 27 27 28 29 30
51 50 50 50 49 48 48 47 47 47 47 48 48 49 50 50 49 48 47 46 45 44 42 42 41 40 39 39 39 39 39 39 39 39 39 40 41 41 41 41 41 40 39 39 41 40 41 41 38 36 38 40 41 41 41 40 40 39 38 37 35 34 33 33 34 33 32 31 29 28 28 27 28 28 26 26 26 26 27 28 29 30 30 31 31 31 32 33
52 51 51 50 49 49 48 48 48 48 48 49 50 51 51 52 52 51 50 48 46 45 45 43 43 42 41 41 41 41 42 42 41 41 41 42 42 42 42 42 41 40 41 42 42 41 42 41 39 39 42 42 41 41 41 40 40 39 38 37 35 33 34 34 34 33 32 32 30 30 29 28 29 28 26 26 26 27 28 30 32 33 33 34 35 35 35 36
53 52 51 50 50 49 49 49 49 49 50 51 52 53 53 54 54 54 53 52 49 47 47 46 45 44 43 44 45 45 46 45 44 44 44 44 45 45 45 44 43 44 44 43 42 42 43 41 41 42 43 42 41 39 38 38 38 37 37 36 33 33 34 34 32 32 32 32 32 31 31 29 29 28 27 27 27 28 30 32 34 35 36 37 38 38 38 39
53 52 52 51 50 50 50 50 50 51 52 53 53 54 55 54 55 55 55 56 54 49 48 49 49 47 47 47 48 49 49 48 47 47 46 46 46 47 48 47 47 47 45 43 44 44 44 42 42 43 43 41 38 36 36 36 36 35 34 33 32 33 33 32 32 32 32 32 32 33 33 31 28 28 29 29 30 32 33 35 36 37 38 39 40 40 40 40
54 53 52 52 52 51 51 51 52 53 54 54 54 55 56 55 54 55 56 59 59 54 50 51 52 51 50 50 51 50 51 51 50 48 48 47 47 47 48 49 49 48 46 45 46 46 43 41 40 41 41 39 36 34 34 34 34 33 32 31 31 32 32 32 32 32 32 33 33 33 35 34 31 31 32 33 34 35 36 37 37 38 38 39 39 39 39 39
56 55 54 54 54 53 53 53 53 54 55 55 55 55 56 56 55 55 56 59 59 55 53 52 53 54 52 51 51 51 52 52 50 49 49 49 48 47 47 47 48 48 47 46 46 45 41 38 39 40 39 38 36 33 33 34 34 32 31 31 32 32 32 33 33 33 33 33 34 34 37 37 37 37 38 37 37 38 38 38 38 38 38 37 37 37 38 38
58 57 57 56 56 55 55 55 55 56 56 55 54 54 54 54 54 54 55 59 59 54 53 54 53 54 53 53 52 52 54 53 50 50 50 49 48 47 47 46 45 45 45 46 45 42 38 37 38 37 36 35 33 32 34 35 33 31 31 32 33 33 33 34 34 34 34 35 36 38 39 41 41 43 44 43 42 40 39 39 39 38 38 38 38 39 39 40
59 59 59 59 58 57 56 56 56 57 57 55 52 50 50 49 50 52 54 58 59 54 54 54 53 53 53 53 52 51 52 52 50 50 48 47 47 46 45 44 43 43 43 43 42 39 37 36 35 34 34 33 32 34 35 34 33 32 32 33 33 33 34 35 35 35 37 38 40 41 41 43 45 47 49 50 47 45 42 40 39 39 39 40 41 41 42 43
60 60 59 58 58 57 57 56 54 54 53 51 49 46 44 44 46 47 50 55 57 56 55 55 52 51 50 49 48 47 48 48 48 47 45 44 44 42 41 41 40 40 40 40 38 36 36 35 33 33 33 33 34 35 34 33 33 33 32 33 33 34 35 36 37 39 41 43 45 44 43 45 48 50 52 53 51 49 46 43 42 41 42 42 43 44 45 46
60 60 58 57 56 56 55 52 48 47 47 47 47 44 41 42 43 44 47 52 55 56 56 54 51 50 47 45 44 43 43 44 43 43 42 41 39 39 38 38 38 38 38 37 35 35 34 34 33 32 32 33 34 34 34 34 34 33 33 33 34 36 38 39 41 42 45 47 47 46 46 48 51 52 53 54 54 53 52 49 47 46 45 45 46 47 47 48
62 62 62 61 59 57 54 49 45 45 44 45 46 43 40 40 41 44 48 49 49 51 51 50 48 45 43 41 40 40 40 40 40 39 38 37 37 36 35 35 35 36 37 36 35 35 34 34 33 32 33 33 33 34 35 34 34 33 34 35 37 39 41 42 43 45 47 48 48 49 50 52 54 53 54 55 55 54 54 53 52 50 50 50 50 51 51 51
60 61 61 61 59 56 52 46 44 46 46 45 45 43 41 42 44 48 49 46 45 47 46 44 43 41 39 38 38 38 38 38 38 38 37 37 36 34 34 34 34 35 36 36 35 35 34 34 33 33 33 33 34 35 35 35 34 35 36 37 39 41 43 45 46 47 48 49 50 52 55 56 56 55 55 55 54 54 53 54 53 53 53 53 54 54 54 53
56 56 56 55 54 52 49 47 46 46 46 45 44 44 44 46 49 50 49 46 46 46 44 41 41 40 39 38 37 38 38 39 39 38 38 37 35 34 34 34 34 34 36 36 36 36 36 35 34 34 34 35 36 36 35 36 36 37 38 39 41 43 45 46 47 49 51 52 54 56 58 59 57 57 56 55 54 54 53 52 53 53 54 55 55 55 55 54
53 53 53 52 51 51 50 49 47 45 46 46 45 46 48 49 49 49 49 48 46 45 44 43 42 41 41 40 39 40 40 40 40 39 38 38 37 36 36 36 36 36 37 38 39 39 38 36 35 35 35 36 36 36 37 38 39 40 41 42 43 44 45 47 50 52 55 56 57 59 61 60 58 58 57 57 56 54 53 53 53 53 54 54 55 55 55 55
53 54 54 52 53 54 53 52 49 46 47 48 47 50 52 50 49 49 48 47 46 45 43 43 43 43 43 43 42 41 41 41 41 40 40 39 39 39 39 40 40 40 40 40 40 41 41 40 39 38 37 37 37 37 38 40 41 43 44 45 46 46 47 50 53 55 56 59 60 61 62 61 59 58 58 58 57 56 55 54 54 54 54 54 55 55 55 55
52 53 55 55 53 53 54 54 51 49 49 49 51 54 54 52 52 52 51 49 49 47 44 43 44 45 45 44 43 42 42 43 43 44 44 43 42 43 43 43 43 43 43 43 43 44 44 43 41 38 36 37 38 39 40 42 44 46 47 48 48 48 50 52 54 55 57 60 61 61 61 60 59 59 58 57 56 55 55 55 55 55 55 55 55 55 55 55
45 49 54 56 53 51 51 51 49 48 49 51 55 56 55 54 55 55 55 54 53 50 46 44 45 46 47 47 45 44 43 43 44 45 46 45 45 46 45 44 44 45 44 44 43 42 41 41 41 38 38 39 40 42 44 46 48 49 50 50 50 51 52 52 53 55 56 59 61 60 60 59 58 59 58 55 55 55 55 55 55 55 55 56 56 56 56 57
41 44 47 49 51 51 48 47 48 49 51 54 58 58 56 56 56 55 54 55 55 53 48 46 47 48 49 50 49 47 46 47 47 47 47 48 49 48 45 43 44 43 42 40 38 39 40 42 44 45 44 45 46 47 48 49 49 48 49 51 51 52 52 52 52 53 55 57 59 59 58 58 58 57 56 55 54 55 55 55 55 55 55 56 56 57 58 59
43 43 42 41 45 49 47 46 48 50 52 56 59 58 57 57 57 56 55 54 55 54 51 49 49 48 49 50 50 50 50 51 49 49 49 49 49 47 43 42 42 40 38 37 37 41 44 47 50 51 50 50 51 51 50 48 47 48 49 50 50 50 50 50 51 52 53 55 57 57 58 59 58 57 57 57 57 57 57 57 57 57 57 57 58 59 60 60
45 42 42 41 43 46 45 46 48 51 54 55 56 58 58 56 56 56 56 55 55 56 54 53 53 52 52 52 53 55 56 55 53 51 50 47 44 43 42 42 41 39 39 40 44 48 51 53 54 54 55 54 53 52 49 47 47 48 49 49 49 48 48 49 50 52 53 54 55 57 60 61 59 60 62 61 59 59 59 60 59 59 59 60 61 62 62 62
51 48 46 44 43 43 44 47 51 54 56 56 55 57 57 56 55 57 57 57 57 57 56 56 57 57 57 55 54 53 53 53 52 50 47 44 42 42 43 43 42 43 46 49 52 54 55 55 56 57 57 55 52 50 49 48 49 49 49 49 48 47 48 51 53 52 52 54 55 57 61 61 60 62 65 63 61 61 61 61 61 61 61 62 62 62 62 63
58 56 54 50 46 44 44 48 51 52 55 56 56 57 57 57 56 58 59 59 58 58 57 57 58 58 56 53 51 50 49 49 50 50 49 48 47 48 48 49 50 53 56 57 58 58 57 56 55 55 55 53 52 52 52 51 50 49 49 48 47 49 50 52 54 54 54 56 58 60 63 63 60 61 63 63 63 62 61 62 62 63 63 62 62 62 62 63
60 59 58 56 54 51 49 50 52 52 53 54 54 56 57 57 56 56 57 58 57 57 56 56 56 56 54 52 51 51 50 49 50 51 50 50 50 51 53 56 58 60 61 61 60 58 55 53 52 52 52 53 54 54 54 53 51 49 49 48 49 51 52 53 55 56 57 60 61 62 65 64 61 60 61 63 64 63 62 62 63 63 62 61 61 62 63 64
59 59 59 59 59 58 56 54 52 53 54 54 54 55 55 55 55 54 54 54 54 54 53 53 54 53 53 51 51 52 51 51 52 52 51 51 53 55 58 61 62 63 62 60 58 55 53 51 51 51 53 55 56 55 53 51 50 50 51 51 52 53 54 55 57 58 61 63 62 63 66 65 62 60 61 63 64 62 62 62 62 61 61 61 62 63 64 65
57 57 58 59 61 62 63 60 56 55 55 54 55 56 56 56 56 56 54 54 53 52 50 50 50 50 50 50 51 52 52 53 55 56 56 57 58 60 62 63 63 62 60 58 57 56 54 54 54 54 56 57 56 54 52 50 51 53 54 53 54 55 56 58 60 61 65 65 64 65 67 65 61 61 62 62 61 60 60 61 59 59 60 62 63 64 65 66
58 57 56 56 59 62 64 65 63 60 59 57 57 57 57 57 58 58 57 55 54 51 49 49 48 48 48 50 52 55 56 57 58 58 57 58 60 61 62 61 60 59 58 57 57 57 57 57 57 56 56 56 55 54 53 54 55 56 56 56 56 58 59 61 63 66 66 65 66 67 67 65 62 60 60 60 58 57 59 59 59 61 62 63 64 65 66 67
60 59 57 55 57 60 62 63 64 63 61 60 60 57 54 54 57 57 56 54 52 51 51 50 49 51 52 53 55 58 60 61 61 59 59 60 61 61 60 58 56 56 55 55 55 56 57 57 56 55 55 55 55 55 56 57 58 58 59 59 59 60 61 63 66 66 65 65 68 68 66 66 63 59 58 59 57 57 58 60 62 63 64 65 66 67 68 68
61 60 59 58 58 59 59 61 62 62 59 58 58 56 54 54 56 57 56 55 53 52 52 52 53 55 57 58 59 61 62 62 63 62 62 61 60 58 57 55 54 54 54 53 54 54 55 56 55 55 56 57 57 58 58 58 60 60 61 61 60 62 64 66 67 66 65 66 68 66 64 64 62 59 58 58 58 59 60 62 64 64 65 66 67 67 67 67
62 62 61 61 61 60 59 60 62 64 63 60 57 56 55 54 53 53 54 55 55 55 54 54 53 56 59 62 62 63 63 62 61 59 56 54 53 53 53 54 54 53 53 53 53 54 56 57 56 57 59 59 59 60 60 61 62 62 62 62 62 64 67 68 67 65 65 66 66 64 63 63 62 60 59 58 59 62 63 63 63 64 64 65 66 66 66 65
61 62 62 63 63 62 62 62 62 64 67 67 65 64 62 60 59 58 58 58 58 58 56 54 54 58 63 65 64 62 59 54 51 49 48 48 49 50 51 52 51 52 52 53 55 56 58 58 58 59 61 62 62 63 63 62 62 63 63 63 64 66 67 66 65 64 64 65 64 63 64 65 62 61 60 60 62 64 63 63 63 64 65 65 65 65 64 63
57 59 61 61 62 63 64 64 64 65 66 67 68 68 68 67 66 65 64 62 61 60 59 59 61 65 66 64 61 58 54 51 50 49 50 51 51 52 53 53 53 54 56 56 58 59 60 61 61 62 65 66 65 64 65 63 63 64 66 65 65 65 64 62 63 65 65 65 64 65 66 65 61 59 61 62 62 62 62 62 63 64 64 65 65 64 63 62
57 58 59 60 60 61 62 63 64 65 65 64 64 64 64 62 60 60 60 59 58 58 60 62 65 66 64 61 60 58 56 56 56 55 55 56 56 56 56 57 57 59 59 60 61 61 62 63 64 65 68 68 67 67 66 64 64 68 69 66 63 62 62 64 67 67 65 65 66 66 65 62 60 61 62 61 61 62 63 63 63 63 63 63 62 61 61 61
Wind_Direction
240 241 242 242 242 243 243 243 244 246 247 249 251 253 256 258 261 263 266 269 272 274 276 276 276 275 273 271 269 266 265 264 264 265 267 269 270 272 275 276 277 278 279 279 279 280 280 280 281 281 282 282 282 283 284 285 285 285 285 286 288 289 291 293 294 296 297 299 300 304 306 308 309 306 305 305 303 300 298 301 303 300 302 302 301 302 305 307
241 241 242 243 243 244 244 245 246 247 249 251 252 255 257 260 262 264 267 269 272 274 275 274 274 273 271 269 267 266 265 265 266 268 270 271 273 274 275 277 278 279 280 280 281 281 281 282 282 283 284 285 285 286 287 287 286 286 287 288 289 290 290 291 292 293 295 296 297 299 302 303 303 301 302 302 301 296 296 301 301 299 304 306 303 303 305 307
241 242 243 243 244 245 245 246 248 249 251 252 254 256 258 261 263 265 268 270 272 273 273 272 272 270 269 267 266 265 265 266 267 269 270 272 273 275 276 277 278 279 280 280 281 281 282 282 282 284 285 285 286 286 287 287 287 286 287 289 289 290 290 290 291 292 294 294 296 298 301 301 299 298 299 301 299 293 295 300 300 301 306 307 305 306 306 307
243 243 244 245 245 246 247 248 250 251 253 254 256 258 259 261 264 266 269 270 271 271 270 270 269 268 267 266 265 265 266 267 268 270 271 272 273 275 276 278 279 280 280 281 282 282 283 283 284 284 285 285 285 285 285 284 284 285 286 287 289 290 290 289 290 292 292 293 295 297 300 300 298 299 299 299 294 291 295 299 298 301 304 305 306 308 308 308
244 245 245 246 248 249 250 251 252 253 254 256 257 259 260 262 264 267 269 270 269 268 267 267 266 266 266 266 266 266 267 268 270 272 273 274 276 277 278 279 281 281 282 282 282 282 283 283 284 284 284 284 283 283 281 280 281 282 284 285 286 289 290 289 289 290 291 292 294 296 299 298 298 300 300 298 291 289 296 298 297 298 300 302 305 306 308 307
246 247 248 249 250 251 252 253 254 256 257 258 259 261 262 264 265 267 268 268 267 265 265 264 264 264 265 265 266 267 268 269 272 274 275 277 278 279 280 281 282 283 283 282 282 282 282 282 282 282 281 281 281 280 278 278 278 281 284 285 286 288 288 289 290 290 290 292 294 296 298 296 298 302 302 298 293 293 295 295 295 295 296 298 301 304 305 305
248 249 250 251 252 253 254 255 256 258 259 260 261 262 263 265 265 266 266 265 264 263 262 262 262 262 263 264 265 267 268 269 270 273 275 277 279 280 281 282 283 283 283 282 280 279 279 279 279 280 280 280 279 279 279 278 279 281 284 286 287 287 287 288 290 290 291 293 294 296 297 295 297 301 299 295 294 295 294 292 292 293 294 296 298 300 301 301
250 251 252 253 254 255 256 257 258 259 260 261 262 263 263 264 264 264 263 262 262 261 260 260 260 260 261 262 264 266 268 269 270 272 274 276 278 280 281 282 283 283 282 280 279 278 277 278 279 279 280 280 280 280 280 281 281 283 284 285 287 287 287 287 289 289 291 293 293 294 295 294 297 298 293 291 293 294 292 291 292 292 294 296 297 297 297 298
250 252 253 254 255 256 257 258 258 259 260 260 261 261 261 261 262 262 262 261 261 260 260 259 259 260 261 262 264 267 269 270 272 273 275 277 278 280 281 282 281 280 279 278 278 278 278 279 280 280 281 281 281 282 282 282 283 283 283 283 284 285 286 287 287 287 289 291 291 292 292 292 295 295 289 287 291 292 291 290 291 292 294 296 296 296 295 295
250 251 252 253 254 255 256 257 258 258 259 260 260 260 261 261 261 261 261 261 261 261 261 261 261 262 262 263 265 268 270 272 274 275 276 278 279 280 280 280 279 278 277 277 278 278 279 280 280 281 281 281 282 282 282 282 282 281 281 282 283 283 285 286 285 286 287 288 288 289 289 290 293 291 287 289 291 290 290 291 292 293 294 295 295 295 294 293
250 251 252 253 254 255 256 257 258 258 259 260 261 261 262 262 262 263 263 263 263 263 263 264 264 265 265 267 268 269 271 273 275 276 277 277 278 279 279 278 277 276 276 277 277 278 279 279 279 280 280 280 280 280 280 280 281 281 282 282 283 283 283 284 283 284 286 286 286 286 286 288 289 286 286 291 293 290 289 291 293 295 296 295 294 293 291 289
251 252 253 254 255 256 257 258 258 259 260 261 261 262 263 263 264 264 265 265 265 265 265 266 266 267 267 269 269 269 271 274 274 275 275 276 276 276 276 276 275 275 276 276 277 278 278 278 278 278 278 279 278 278 278 279 280 281 282 283 283 283 283 283 282 283 284 284 284 284 284 285 286 286 289 293 293 291 289 291 294 296 294 293 292 290 287 285
252 253 254 255 256 257 258 258 259 260 261 261 262 263 263 264 264 265 265 265 265 265 266 266 266 267 268 268 268 269 271 272 273 273 273 273 274 274 274 274 274 274 275 275 276 276 277 277 277 277 278 278 278 278 278 279 281 282 282 282 282 282 282 282 282 284 283 282 281 282 283 283 284 288 291 292 291 291 291 291 292 292 292 291 289 287 285 284
252 253 254 255 256 257 258 259 260 261 261 262 262 263 263 264 264 264 265 265 265 265 266 266 266 266 267 267 267 268 269 270 270 271 272 272 272 273 273 273 274 274 275 275 275 276 276 276 276 276 277 278 279 279 280 282 282 283 283 283 281 279 279 281 282 284 282 280 280 281 282 283 284 287 289 290 291 292 292 291 290 288 289 288 286 285 285 285
251 252 253 254 255 256 257 258 259 260 261 262 262 263 263 263 264 264 264 265 265 265 266 266 266 267 267 267 267 268 269 269 270 270 271 272 272 273 273 273 274 274 274 275 275 275 276 276 276 277 278 279 281 282 283 283 284 284 283 282 280 280 281 282 282 282 280 279 279 279 281 284 286 286 287 289 292 293 291 289 288 287 287 287 286 286 285 285
250 251 252 253 254 255 257 258 259 260 261 262 262 263 263 263 264 264 264 264 264 265 265 266 266 267 267 267 267 268 268 269 270 270 271 271 271 272 272 273 273 273 274 274 275 275 276 276 277 278 280 281 282 285 285 283 284 283 281 281 282 284 284 283 281 280 280 279 279 280 282 286 287 285 286 290 293 293 289 288 287 286 286 287 288 288 287 286
249 250 251 253 254 255 257 259 260 261 262 262 263 263 263 263 263 263 264 264 264 264 265 265 266 266 267 267 267 267 267 267 268 269 269 269 270 271 271 271 272 272 273 274 275 275 276 277 278 279 280 282 285 286 284 282 282 281 280 283 284 285 284 283 281 279 278 278 280 283 285 286 286 285 287 291 292 291 290 290 289 288 288 289 290 289 288 286
250 251 252 253 255 257 258 260 262 263 264 264 264 264 264 264 264 263 263 263 263 263 264 264 265 265 266 267 266 265 265 266 267 267 268 269 269 270 270 271 272 273 273 274 275 276 276 277 278 279 281 285 286 283 280 280 281 281 283 285 285 284 284 284 282 278 278 279 282 284 284 285 285 285 289 292 291 292 293 295 296 296 294 293 291 290 288 287
252 252 253 254 255 256 258 261 262 264 265 266 266 266 266 265 265 264 264 263 263 263 263 263 264 265 266 266 266 266 266 266 267 267 268 269 269 270 271 271 272 273 274 275 276 276 277 277 277 280 285 286 282 279 279 281 283 284 285 284 284 284 285 284 281 279 280 282 283 283 283 284 284 286 289 290 292 294 297 300 301 300 299 296 293 291 290 289
253 254 254 255 255 256 258 261 262 264 265 266 267 267 267 266 265 264 264 264 263 262 263 264 265 265 266 266 266 266 266 266 266 267 268 270 271 271 271 271 272 273 274 276 276 276 277 277 278 283 285 281 278 278 280 282 283 284 284 283 284 285 285 283 281 282 283 283 282 281 282 283 283 284 287 288 292 296 299 301 300 299 298 295 292 291 290 290
254 255 255 256 256 257 259 261 263 263 265 266 267 268 267 266 265 264 263 263 263 262 262 264 265 265 266 267 266 266 266 266 267 268 269 270 270 270 271 271 271 272 274 274 275 276 277 277 281 284 282 279 279 280 279 280 280 281 282 282 282 283 282 280 280 282 283 283 281 279 280 281 281 283 286 289 294 298 300 300 298 297 295 293 291 289 288 288
253 254 255 256 257 258 260 262 263 264 265 267 268 269 268 267 265 264 263 262 261 261 262 262 264 265 265 266 266 266 267 267 268 269 270 270 270 270 270 270 271 272 272 272 274 276 276 277 281 281 279 279 279 277 277 277 278 279 279 279 279 279 278 278 278 279 280 280 280 279 280 280 281 284 288 293 297 299 299 297 295 294 292 291 289 288 286 285
253 254 255 256 257 258 260 262 263 265 266 268 269 270 271 269 266 264 263 263 260 260 261 263 264 265 265 265 266 267 267 268 269 270 270 271 271 270 269 269 270 270 270 272 274 275 275 277 279 279 278 278 276 274 275 275 275 275 275 275 276 276 275 275 277 277 278 279 280 281 281 281 283 287 291 294 296 297 295 292 291 290 289 288 287 287 286 286
253 254 254 256 257 259 261 263 264 266 267 268 270 272 273 272 268 264 263 263 261 259 260 262 264 265 264 264 265 266 267 268 269 270 271 272 273 271 269 268 268 269 270 273 273 273 275 277 277 277 277 276 274 273 273 273 273 273 273 273 273 273 273 275 276 277 278 280 281 282 283 282 284 289 292 293 295 293 290 288 287 287 287 286 286 286 286 286
253 254 255 256 257 259 261 262 264 266 267 269 271 271 271 271 268 264 262 263 263 261 259 261 263 265 264 264 265 266 267 268 269 271 272 273 273 272 270 268 268 269 271 272 272 273 275 276 276 275 274 274 274 273 273 273 272 272 273 273 273 273 274 276 276 277 279 280 281 284 284 284 286 289 291 293 293 289 287 286 286 286 285 285 285 285 285 285
253 254 255 256 257 259 260 262 264 265 267 269 269 269 269 269 266 264 263 263 265 264 261 259 261 263 264 265 265 267 267 268 270 273 274 274 273 272 271 269 268 268 270 270 271 273 274 274 272 271 272 273 274 273 272 271 271 273 275 274 274 274 276 277 277 278 279 280 282 283 285 286 288 290 291 291 288 285 285 285 285 285 286 286 286 285 285 286
253 255 255 256 257 258 260 262 263 265 267 267 268 269 268 267 265 263 263 264 265 265 263 261 260 262 264 266 266 267 268 270 272 273 274 273 271 270 270 270 269 268 268 269 270 272 272 269 268 269 271 271 271 271 269 270 273 276 276 275 276 277 277 277 277 278 279 280 281 283 286 289 290 292 293 290 287 285 286 285 285 286 288 289 288 288 288 287
254 255 256 257 257 258 260 262 264 266 265 265 267 268 266 265 264 263 262 263 266 267 265 263 262 262 265 267 268 268 268 270 272 272 272 271 270 269 270 270 269 267 266 267 268 269 267 265 265 266 267 267 267 268 269 273 275 275 275 276 277 277 277 277 277 278 278 279 281 283 288 291 294 296 296 294 293 292 290 288 288 289 290 290 290 290 290 290
254 256 257 257 256 258 261 263 265 265 262 262 263 263 263 263 264 263 261 262 266 267 266 265 266 266 268 268 268 268 269 270 270 270 270 269 269 269 269 268 267 266 265 265 264 264 263 262 263 263 264 265 266 267 269 271 272 272 273 274 275 275 275 275 276 277 277 279 282 286 289 293 295 297 297 297 297 296 294 294 293 292 291 291 291 291 291 290
254 255 256 256 257 259 261 262 263 262 259 260 261 261 262 263 263 261 259 261 265 266 267 268 269 270 270 269 269 269 269 269 269 269 268 268 268 267 266 265 265 264 263 263 262 261 261 262 263 263 264 265 266 267 269 269 270 272 273 273 273 272 271 272 273 274 276 280 285 288 290 292 294 296 297 298 298 298 299 300 298 296 295 294 294 294 293 291
253 254 255 256 258 260 258 258 260 259 259 261 261 259 260 259 256 256 259 263 265 267 269 271 271 271 271 271 269 268 268 267 268 268 268 267 266 264 263 263 263 263 263 262 262 261 261 262 263 264 264 264 266 268 269 269 270 271 271 270 270 271 271 272 274 275 278 283 287 288 289 291 292 295 297 297 298 299 299 299 298 298 298 298 297 296 294 293
252 253 254 255 255 255 253 254 257 257 258 259 257 256 256 253 252 256 262 265 266 267 269 271 273 273 271 269 267 266 265 265 266 266 266 266 264 263 261 261 261 262 263 263 261 259 260 262 263 263 263 263 265 268 268 268 268 267 267 268 269 271 273 275 278 280 282 285 287 288 290 291 293 296 297 297 296 295 294 295 296 297 297 297 296 295 294 293
250 251 252 251 250 250 251 253 253 254 255 254 252 254 252 249 254 262 264 264 265 268 271 272 272 270 266 265 264 264 265 265 265 265 264 263 262 261 261 261 261 261 261 260 258 257 258 260 261 262 263 265 266 267 267 267 267 267 269 269 271 273 275 279 283 284 285 286 287 289 290 291 294 296 297 296 293 291 291 292 293 293 294 294 293 293 292 292
246 246 245 245 245 246 248 248 249 248 249 249 249 251 250 250 257 263 263 263 265 269 272 272 270 268 265 263 262 262 264 265 265 263 262 260 260 261 262 263 262 260 258 257 256 257 258 260 261 262 264 265 266 267 267 269 270 272 274 275 276 277 278 282 285 285 286 287 288 289 289 292 295 297 296 294 291 291 291 291 290 290 290 290 290 290 290 290
242 239 239 239 239 242 243 243 244 243 243 246 247 247 249 253 258 259 259 262 264 265 267 268 266 264 262 262 262 262 264 265 265 263 261 260 261 262 263 263 261 259 258 258 258 259 260 261 262 262 264 266 267 268 269 272 274 276 278 279 280 281 280 281 282 284 285 286 287 289 290 293 295 295 294 293 292 292 292 291 290 289 289 288 288 288 288 289
242 241 240 238 235 237 240 240 240 240 240 243 243 242 247 253 256 258 259 261 262 262 262 262 262 261 260 261 262 264 264 266 267 264 262 262 263 264 265 264 263 261 260 261 261 262 263 263 263 264 265 267 270 271 273 275 276 278 280 281 282 282 280 279 280 282 283 283 286 289 290 292 292 293 293 291 291 292 291 290 290 289 289 289 288 288 288 288
240 243 242 239 236 234 238 240 240 240 241 242 242 242 244 248 251 254 257 259 260 260 260 261 260 259 260 261 262 264 265 266 267 265 263 265 267 268 268 267 265 264 264 264 263 264 267 267 268 268 267 269 272 273 276 277 277 279 282 283 282 280 278 277 278 280 280 281 285 287 288 290 291 292 293 292 291 291 289 289 289 289 289 289 288 288 288 287
237 241 244 244 239 235 239 243 241 242 243 243 243 243 243 244 246 248 252 255 258 259 260 260 259 258 259 260 262 262 264 266 267 266 266 268 272 273 271 267 265 265 266 264 261 264 268 269 270 272 273 274 275 275 275 275 276 277 278 278 276 275 275 276 277 279 281 281 284 286 288 290 291 292 292 291 290 289 288 288 288 288 288 287 287 286 285 285
238 241 244 245 241 237 240 242 241 243 243 242 243 244 243 244 246 246 247 250 254 256 256 255 255 255 257 260 262 263 265 267 266 265 268 272 275 275 270 263 260 260 258 255 255 262 267 271 273 276 276 276 276 275 274 274 274 272 271 271 272 273 275 277 279 281 282 281 284 287 288 291 292 292 291 289 289 289 289 289 289 288 288 287 285 284 284 284
240 242 244 243 241 240 241 242 242 242 242 242 243 244 244 244 244 244 245 247 249 252 253 253 253 253 255 259 262 264 267 268 266 267 271 273 271 268 261 255 252 251 250 252 258 264 269 272 275 276 276 275 274 274 273 271 270 270 270 272 274 277 279 280 280 282 282 283 285 287 288 291 293 292 289 289 291 291 290 290 289 289 287 285 284 284 284 284
241 242 243 241 241 241 241 244 244 242 242 243 243 243 244 244 243 242 243 244 247 249 251 252 252 251 253 255 258 260 261 263 263 265 266 265 262 258 254 251 250 252 256 261 266 268 270 271 273 274 274 273 272 270 269 268 268 271 273 276 280 282 283 283 283 284 285 284 284 284 285 290 293 291 290 291 292 291 290 290 289 287 285 284 284 285 285 285
242 242 242 241 240 240 241 244 244 243 243 242 241 242 244 244 243 241 242 243 245 246 247 249 250 251 252 253 254 254 255 256 258 260 259 258 256 254 253 253 255 259 263 267 269 271 271 270 270 270 269 268 267 267 268 268 270 273 276 280 283 283 284 285 285 287 285 284 285 284 284 289 292 290 291 292 292 291 290 289 287 286 285 285 286 286 284 283
243 242 242 241 240 240 241 243 243 244 245 244 243 243 243 243 242 241 242 242 242 243 244 245 247 249 250 251 253 254 256 256 257 257 257 256 254 254 256 258 261 263 266 268 269 270 268 266 266 265 265 265 266 267 269 270 274 277 280 281 282 282 284 285 285 286 285 285 287 284 284 290 292 291 292 292 290 289 288 287 286 286 287 287 286 284 282 281
243 243 242 241 241 240 241 242 243 244 245 246 247 247 246 245 244 243 243 243 242 243 245 246 248 250 252 254 255 256 256 256 255 254 253 253 255 257 260 263 265 266 267 268 267 266 264 263 263 264 264 265 267 268 270 273 277 279 280 281 282 284 286 286 287 287 285 287 287 284 285 292 293 292 292 290 288 288 288 287 286 286 287 285 283 281 281 280
244 243 242 241 240 240 240 241 243 244 245 247 248 249 249 248 247 246 245 245 245 247 250 253 254 254 256 258 259 259 258 258 258 257 256 258 260 262 264 265 266 266 266 265 264 263 262 262 263 264 265 266 268 271 273 275 277 278 280 282 285 287 288 289 290 288 287 289 287 286 289 292 292 293 292 288 288 288 287 287 287 286 284 281 280 280 280 280
244 243 242 242 242 241 240 240 242 244 246 248 249 250 250 250 250 249 248 248 248 249 252 255 256 257 259 262 263 263 263 262 261 261 262 263 264 264 264 264 263 262 261 260 260 260 260 261 262 264 266 268 272 275 277 278 279 281 283 285 287 289 290 291 290 289 290 289 288 291 294 291 290 293 292 288 288 287 286 286 285 282 281 280 280 281 281 281
244 244 243 242 243 243 243 241 241 244 247 248 248 248 248 248 248 249 250 250 250 251 252 255 258 260 260 261 262 262 261 261 261 262 262 262 261 261 261 260 258 257 257 256 256 256 258 259 261 265 269 273 277 279 281 282 283 284 285 286 288 290 290 290 289 290 291 289 290 295 294 288 291 295 291 287 287 285 284 282 281 280 280 281 281 281 281 282
244 244 243 241 242 243 245 244 241 242 245 247 245 243 242 243 244 246 248 249 250 251 252 255 258 259 258 258 259 259 258 258 259 260 259 258 257 256 256 256 255 255 254 253 254 256 258 260 263 269 274 277 280 282 284 285 286 286 287 288 289 290 290 289 290 292 293 291 292 294 290 288 292 293 287 285 285 283 280 279 279 280 280 280 280 281 281 282
245 245 244 242 241 241 243 245 243 241 243 245 244 243 242 242 243 245 247 248 248 248 249 251 254 257 257 258 258 257 257 257 256 257 256 255 253 252 252 252 252 252 252 253 255 258 262 265 269 274 278 279 282 284 285 286 286 286 287 288 289 290 290 291 293 295 294 291 291 291 287 288 290 288 284 283 282 280 278 279 280 281 279 279 279 280 281 281
244 245 245 244 243 241 241 243 244 243 243 244 245 246 246 246 247 249 251 251 251 250 250 252 254 255 254 253 253 252 252 253 253 252 251 250 249 249 249 250 251 252 254 257 260 264 268 272 274 278 281 281 283 285 286 286 286 286 286 288 290 290 291 293 295 293 290 289 289 286 284 286 288 285 282 281 279 279 280 282 282 281 280 281 281 282 282 282
243 242 243 243 243 242 242 242 243 244 244 245 247 249 250 251 252 254 255 256 254 253 252 252 251 250 249 248 248 248 248 250 251 251 250 251 251 252 254 254 256 259 261 264 267 270 274 276 279 281 282 283 284 285 285 285 285 284 286 289 291 292 293 293 290 287 286 286 284 281 282 286 286 281 279 279 279 280 282 282 281 281 283 283 284 284 284 283
243 242 241 241 241 242 242 243 244 245 246 247 250 251 253 255 255 254 253 253 251 248 247 247 246 246 246 246 245 245 248 252 254 255 256 257 258 259 261 262 262 264 266 267 270 273 276 279 281 282 283 283 283 283 284 284 283 283 287 291 291 291 290 288 286 286 286 284 282 282 284 286 283 279 279 280 280 280 280 280 281 282 283 282 283 283 283 283
Height
5849 5850 5851 5852 5852 5853 5854 5855 5856 5856 5857 5858 5858 5859 5859 5860 5860 5860 5861 5861 5861 5861 5862 5862 5862 5862 5862 5862 5863 5863 5863 5863 5863 5863 5863 5863 5863 5863 5863 5863 5863 5864 5864 5864 5864 5863 5863 5863 5863 5863 5863 5863 5863 5863 5863 5863 5863 5862 5862 5861 5861 5861 5861 5860 5860 5860 5860 5859 5859 5860 5860 5860 5860 5859 5859 5859 5857 5854 5850 5850 5851 5850 5852 5854 5854 5854 5853 5853
5847 5848 5849 5850 5851 5851 5852 5853 5854 5854 5855 5856 5856 5857 5857 5858 5858 5858 5859 5859 5860 5860 5860 5860 5860 5860 5860 5861 5861 5861 5861 5861 5861 5862 5861 5861 5861 5861 5862 5862 5862 5862 5862 5862 5862 5861 5861 5861 5861 5861 5861 5861 5861 5861 5861 5861 5860 5860 5859 5859 5859 5858 5858 5858 5858 5858 5858 5857 5857 5858 5858 5858 5858 5858 5857 5857 5856 5852 5849 5848 5848 5847 5850 5852 5853 5853 5852 5852
5845 5846 5847 5848 5849 5849 5850 5851 5852 5852 5853 5853 5854 5855 5855 5855 5856 5856 5857 5857 5858 5858 5858 5858 5858 5858 5858 5859 5859 5859 5859 5860 5860 5860 5860 5860 5859 5859 5860 5860 5860 5860 5860 5860 5860 5859 5859 5859 5859 5859 5859 5858 5858 5859 5859 5859 5858 5857 5857 5857 5857 5856 5856 5856 5855 5855 5856 5855 5855 5855 5856 5856 5855 5856 5855 5855 5854 5850 5848 5847 5845 5845 5847 5849 5850 5851 5851 5850
5843 5844 5844 5845 5846 5847 5848 5849 5849 5850 5850 5851 5852 5852 5853 5853 5853 5854 5854 5855 5855 5855 5856 5856 5856 5856 5856 5856 5857 5857 5857 5857 5858 5858 5858 5858 5858 5858 5858 5858 5858 5858 5858 5858 5857 5857 5857 5857 5857 5857 5856 5856 5856 5856 5857 5856 5856 5855 5855 5855 5855 5854 5854 5854 5853 5853 5853 5853 5852 5852 5853 5853 5852 5853 5852 5853 5851 5848 5847 5847 5845 5843 5844 5845 5846 5848 5848 5848
5840 5841 5842 5843 5844 5844 5845 5846 5847 5847 5848 5848 5849 5849 5850 5850 5851 5851 5852 5852 5853 5853 5853 5853 5853 5854 5854 5854 5854 5855 5855 5855 5855 5855 5855 5855 5855 5855 5855 5855 5855 5855 5855 5855 5855 5854 5854 5854 5854 5854 5854 5854 5854 5854 5854 5854 5854 5853 5853 5853 5853 5853 5851 5851 5851 5850 5850 5850 5850 5850 5851 5850 5849 5849 5849 5849 5848 5846 5845 5845 5844 5843 5842 5842 5843 5844 5845 5845
5837 5838 5839 5840 5841 5841 5842 5843 5844 5844 5845 5845 5846 5846 5847 5847 5848 5848 5849 5849 5850 5850 5850 5851 5851 5851 5852 5852 5852 5852 5852 5852 5853 5853 5853 5853 5853 5853 5853 5853 5853 5852 5853 5852 5852 5852 5852 5851 5851 5851 5851 5851 5851 5852 5852 5852 5852 5852 5851 5851 5851 5851 5849 5848 5848 5847 5847 5848 5847 5848 5848 5847 5847 5847 5846 5845 5844 5843 5843 5843 5842 5842 5842 5842 5841 5841 5841 5842
5834 5835 5836 5836 5837 5838 5839 5840 5840 5841 5842 5842 5843 5843 5844 5844 5845 5845 5846 5846 5847 5847 5848 5848 5848 5849 5849 5849 5849 5850 5849 5849 5851 5850 5850 5850 5850 5850 5850 5850 5850 5850 5850 5850 5849 5849 5849 5849 5849 5849 5849 5849 5849 5849 5849 5850 5850 5850 5849 5848 5848 5848 5847 5846 5845 5844 5844 5845 5845 5846 5845 5844 5845 5845 5843 5841 5840 5840 5841 5840 5840 5840 5840 5840 5840 5839 5839 5838
5830 5831 5832 5833 5834 5835 5835 5836 5837 5838 5838 5839 5839 5840 5840 5841 5841 5842 5842 5843 5844 5844 5845 5845 5845 5846 5846 5847 5847 5847 5846 5846 5848 5848 5848 5848 5847 5847 5847 5847 5847 5847 5847 5847 5847 5847 5846 5846 5846 5846 5846 5846 5846 5846 5846 5846 5847 5847 5847 5846 5846 5845 5845 5844 5844 5842 5842 5842 5842 5843 5843 5841 5842 5843 5840 5838 5838 5838 5837 5837 5838 5838 5838 5838 5838 5838 5837 5836
5826 5827 5828 5829 5830 5831 5832 5832 5833 5834 5835 5835 5836 5836 5837 5837 5838 5839 5839 5840 5840 5841 5841 5842 5842 5843 5843 5843 5844 5845 5843 5843 5845 5845 5845 5845 5844 5844 5844 5844 5844 5844 5844 5844 5844 5844 5844 5844 5844 5843 5843 5843 5843 5843 5843 5843 5844 5844 5844 5844 5843 5843 5842 5842 5841 5840 5839 5840 5839 5840 5841 5839 5840 5840 5837 5836 5836 5835 5834 5835 5835 5836 5836 5835 5835 5835 5834 5834
5822 5823 5824 5825 5826 5827 5828 5829 5829 5830 5831 5832 5832 5833 5833 5834 5834 5835 5836 5837 5837 5838 5838 5838 5839 5839 5840 5840 5842 5842 5839 5840 5842 5842 5841 5841 5841 5841 5841 5841 5841 5841 5841 5841 5841 5841 5841 5841 5841 5840 5840 5841 5840 5840 5840 5840 5840 5841 5841 5841 5841 5840 5840 5839 5838 5838 5837 5837 5837 5838 5839 5837 5838 5837 5833 5833 5835 5833 5832 5831 5832 5832 5833 5833 5832 5832 5831 5831
5819 5820 5820 5821 5822 5823 5824 5825 5826 5826 5827 5828 5829 5829 5830 5830 5831 5832 5832 5833 5833 5834 5834 5835 5835 5836 5837 5837 5838 5838 5836 5837 5838 5838 5838 5838 5838 5837 5837 5838 5838 5838 5838 5838 5838 5838 5838 5838 5838 5837 5837 5837 5837 5837 5837 5837 5837 5837 5838 5838 5838 5837 5838 5836 5835 5835 5835 5834 5834 5834 5836 5836 5835 5834 5830 5830 5832 5831 5830 5829 5829 5829 5829 5829 5829 5829 5829 5828
5814 5816 5816 5817 5818 5819 5820 5821 5821 5822 5823 5824 5824 5825 5826 5826 5827 5828 5828 5829 5829 5830 5831 5831 5832 5832 5833 5834 5835 5834 5833 5834 5834 5834 5834 5834 5834 5834 5834 5834 5834 5835 5835 5835 5834 5834 5834 5834 5834 5833 5833 5834 5834 5834 5833 5834 5834 5834 5834 5835 5835 5834 5835 5834 5832 5833 5832 5831 5830 5830 5833 5834 5833 5831 5828 5828 5828 5828 5827 5827 5827 5826 5826 5826 5826 5825 5825 5825
5810 5811 5812 5813 5814 5815 5816 5816 5817 5818 5819 5819 5820 5821 5821 5822 5823 5823 5824 5825 5825 5826 5827 5827 5828 5828 5829 5831 5831 5830 5830 5830 5830 5830 5830 5830 5831 5831 5831 5831 5831 5831 5831 5831 5831 5831 5830 5830 5830 5830 5830 5830 5831 5830 5830 5831 5831 5830 5830 5831 5831 5831 5831 5830 5829 5829 5829 5828 5827 5827 5829 5831 5830 5828 5826 5825 5825 5824 5824 5825 5824 5824 5823 5822 5822 5821 5821 5821
5806 5807 5808 5809 5810 5811 5811 5812 5813 5814 5815 5815 5816 5817 5817 5818 5818 5819 5820 5820 5821 5822 5822 5823 5824 5824 5825 5827 5827 5827 5827 5827 5826 5826 5826 5827 5827 5827 5827 5827 5827 5827 5827 5827 5827 5827 5826 5827 5826 5826 5826 5826 5827 5827 5827 5827 5827 5827 5826 5826 5827 5827 5828 5827 5826 5826 5825 5824 5824 5823 5824 5827 5828 5825 5824 5823 5822 5822 5822 5822 5821 5820 5820 5819 5819 5818 5818 5817
5802 5803 5804 5805 5806 5807 5808 5808 5809 5810 5811 5811 5812 5812 5813 5814 5814 5815 5816 5816 5817 5817 5818 5819 5819 5820 5821 5823 5823 5823 5823 5823 5823 5823 5823 5823 5823 5823 5823 5823 5823 5823 5823 5823 5823 5823 5823 5823 5822 5822 5823 5823 5823 5823 5823 5823 5823 5823 5822 5821 5822 5822 5824 5825 5823 5822 5821 5820 5820 5820 5820 5823 5825 5822 5820 5819 5819 5819 5819 5818 5817 5817 5816 5815 5815 5815 5814 5814
5798 5799 5800 5801 5802 5803 5804 5805 5805 5806 5807 5807 5807 5808 5809 5809 5810 5811 5812 5812 5813 5813 5814 5814 5815 5815 5817 5819 5819 5819 5819 5818 5818 5819 5819 5819 5819 5819 5819 5819 5819 5819 5819 5819 5819 5819 5819 5819 5818 5819 5819 5819 5820 5820 5819 5818 5819 5818 5816 5816 5817 5818 5820 5821 5820 5818 5817 5816 5816 5816 5817 5819 5820 5817 5816 5816 5816 5816 5815 5815 5814 5813 5813 5812 5812 5811 5811 5811
5793 5794 5795 5797 5798 5799 5800 5801 5802 5802 5803 5803 5804 5804 5805 5805 5806 5806 5807 5808 5808 5809 5809 5810 5811 5811 5812 5814 5815 5815 5815 5814 5814 5815 5815 5815 5815 5815 5815 5815 5815 5815 5815 5815 5815 5815 5815 5815 5815 5815 5815 5816 5817 5816 5814 5813 5814 5814 5812 5812 5814 5814 5815 5816 5816 5814 5813 5812 5812 5813 5813 5814 5815 5812 5812 5813 5812 5812 5811 5811 5811 5810 5809 5809 5809 5808 5808 5808
5789 5790 5791 5792 5793 5794 5795 5796 5797 5798 5798 5799 5799 5800 5800 5801 5801 5802 5803 5803 5804 5805 5805 5806 5806 5806 5808 5809 5810 5810 5810 5810 5811 5811 5810 5811 5811 5811 5811 5811 5811 5811 5811 5811 5812 5811 5811 5811 5811 5811 5812 5813 5813 5811 5808 5808 5809 5809 5809 5809 5809 5810 5811 5811 5811 5809 5808 5808 5809 5809 5809 5810 5809 5808 5808 5809 5808 5808 5808 5807 5807 5806 5806 5806 5805 5805 5805 5804
5784 5785 5786 5787 5789 5790 5791 5792 5793 5793 5794 5794 5795 5796 5796 5796 5797 5798 5798 5799 5800 5800 5800 5801 5802 5802 5803 5805 5805 5806 5806 5806 5806 5806 5806 5807 5807 5807 5807 5807 5807 5807 5807 5807 5807 5806 5806 5806 5806 5808 5810 5810 5807 5805 5805 5805 5805 5805 5805 5805 5805 5805 5807 5807 5805 5804 5804 5805 5806 5805 5805 5806 5805 5804 5805 5805 5804 5804 5803 5803 5802 5802 5802 5802 5802 5802 5801 5801
5779 5780 5781 5782 5784 5785 5786 5787 5788 5789 5789 5790 5791 5791 5791 5792 5792 5793 5793 5794 5795 5796 5796 5796 5797 5798 5799 5800 5801 5801 5801 5801 5801 5802 5802 5803 5803 5802 5802 5803 5803 5803 5803 5803 5802 5802 5802 5801 5803 5805 5806 5804 5802 5801 5801 5801 5801 5801 5801 5801 5801 5801 5802 5801 5800 5799 5800 5801 5802 5801 5801 5802 5802 5801 5802 5801 5801 5800 5799 5799 5798 5799 5799 5798 5798 5798 5798 5797
5774 5775 5777 5778 5779 5780 5781 5783 5784 5784 5785 5785 5786 5786 5787 5787 5787 5787 5788 5789 5790 5791 5792 5792 5793 5794 5795 5795 5795 5796 5796 5796 5797 5797 5798 5798 5798 5798 5798 5798 5798 5799 5799 5798 5797 5798 5797 5797 5800 5802 5800 5798 5798 5798 5797 5797 5797 5797 5797 5797 5797 5797 5797 5796 5795 5795 5796 5796 5797 5797 5797 5798 5798 5798 5798 5798 5797 5796 5796 5795 5795 5795 5795 5795 5795 5795 5794 5794
5769 5770 5772 5773 5774 5776 5777 5778 5779 5780 5780 5780 5781 5781 5782 5781 5781 5782 5783 5784 5786 5787 5787 5788 5788 5789 5790 5790 5790 5791 5791 5791 5792 5793 5793 5793 5793 5793 5793 5793 5794 5795 5794 5794 5794 5794 5792 5793 5796 5796 5794 5794 5794 5793 5793 5793 5793 5793 5793 5793 5793 5793 5792 5791 5792 5792 5791 5792 5792 5792 5793 5794 5793 5794 5795 5794 5793 5792 5792 5791 5791 5791 5791 5791 5791 5790 5790 5790
5764 5765 5767 5768 5769 5771 5772 5773 5774 5775 5775 5775 5776 5776 5776 5776 5776 5776 5776 5777 5781 5783 5782 5782 5783 5785 5786 5785 5785 5785 5785 5787 5788 5788 5788 5788 5788 5789 5788 5789 5790 5789 5789 5790 5790 5789 5788 5790 5792 5790 5789 5789 5789 5789 5789 5788 5788 5789 5788 5789 5789 5789 5788 5787 5788 5788 5787 5787 5787 5787 5788 5789 5789 5790 5790 5790 5789 5789 5789 5788 5787 5787 5787 5786 5786 5786 5785 5785
5758 5760 5761 5762 5764 5765 5766 5768 5769 5769 5770 5770 5770 5770 5770 5770 5770 5770 5770 5769 5772 5777 5778 5777 5778 5779 5780 5780 5780 5779 5780 5781 5782 5783 5783 5784 5784 5784 5783 5784 5784 5784 5785 5786 5785 5784 5784 5786 5786 5785 5783 5784 5784 5785 5785 5784 5784 5784 5784 5785 5785 5784 5784 5784 5784 5784 5783 5783 5783 5783 5783 5785 5786 5786 5786 5786 5786 5785 5784 5784 5783 5783 5783 5782 5781 5781 5781 5780
5753 5754 5755 5757 5758 5759 5761 5762 5763 5764 5764 5765 5764 5764 5764 5764 5764 5764 5764 5762 5762 5769 5774 5773 5772 5773 5774 5774 5774 5775 5775 5775 5777 5777 5778 5779 5778 5778 5778 5778 5778 5779 5780 5780 5779 5779 5780 5781 5781 5779 5778 5779 5780 5781 5781 5780 5780 5780 5781 5781 5781 5781 5780 5780 5780 5780 5779 5779 5779 5778 5777 5779 5782 5783 5783 5783 5783 5781 5780 5780 5779 5779 5779 5778 5778 5777 5777 5776
5747 5748 5749 5750 5751 5753 5755 5756 5757 5758 5759 5759 5758 5759 5758 5758 5758 5757 5758 5755 5754 5760 5766 5767 5767 5766 5767 5769 5769 5770 5769 5769 5772 5772 5772 5773 5773 5773 5772 5772 5773 5774 5775 5774 5773 5774 5776 5776 5775 5774 5774 5774 5775 5776 5776 5775 5775 5776 5777 5777 5777 5777 5777 5776 5776 5775 5775 5774 5775 5775 5774 5774 5777 5778 5778 5779 5778 5777 5776 5776 5775 5775 5774 5774 5774 5773 5772 5771
5741 5742 5743 5744 5745 5747 5749 5750 5751 5752 5753 5753 5753 5753 5752 5752 5752 5752 5753 5749 5747 5752 5757 5759 5761 5761 5762 5763 5765 5765 5763 5764 5767 5767 5766 5766 5766 5766 5766 5766 5768 5768 5769 5768 5768 5769 5771 5770 5769 5769 5770 5770 5771 5771 5771 5770 5772 5773 5773 5773 5773 5773 5772 5772 5771 5771 5771 5770 5770 5770 5771 5771 5772 5772 5771 5772 5773 5772 5773 5772 5771 5770 5770 5769 5769 5768 5767 5766
5735 5736 5737 5738 5739 5742 5743 5744 5746 5746 5746 5747 5747 5747 5746 5746 5746 5747 5748 5743 5741 5745 5748 5749 5753 5756 5757 5758 5759 5760 5758 5759 5760 5760 5760 5760 5760 5760 5760 5761 5762 5762 5763 5763 5764 5765 5765 5765 5765 5765 5765 5766 5766 5766 5766 5767 5768 5768 5768 5768 5769 5768 5768 5767 5767 5767 5767 5767 5766 5767 5768 5767 5766 5765 5762 5762 5765 5766 5767 5766 5766 5765 5764 5763 5763 5762 5761 5760
5729 5730 5731 5731 5733 5736 5738 5739 5741 5740 5740 5741 5741 5741 5741 5741 5741 5742 5742 5738 5736 5737 5739 5742 5746 5750 5752 5753 5753 5754 5754 5754 5754 5754 5754 5754 5754 5755 5755 5756 5756 5756 5757 5758 5759 5760 5760 5760 5761 5761 5761 5762 5762 5761 5762 5763 5763 5763 5764 5764 5764 5764 5763 5763 5763 5763 5763 5763 5763 5763 5764 5763 5760 5759 5756 5755 5757 5757 5758 5759 5759 5758 5758 5757 5757 5756 5755 5754
5722 5724 5725 5725 5727 5730 5732 5735 5736 5734 5734 5735 5735 5736 5735 5735 5736 5736 5733 5732 5732 5732 5733 5737 5741 5743 5746 5747 5748 5748 5748 5748 5748 5748 5748 5749 5749 5750 5750 5750 5751 5752 5753 5754 5755 5756 5756 5756 5756 5757 5757 5758 5758 5758 5759 5759 5759 5759 5760 5760 5759 5759 5759 5759 5759 5759 5758 5758 5759 5759 5758 5757 5754 5753 5751 5750 5751 5750 5750 5750 5750 5749 5750 5749 5749 5748 5747 5746
5715 5717 5718 5719 5722 5724 5726 5729 5730 5728 5729 5730 5730 5730 5729 5728 5729 5727 5725 5727 5729 5728 5730 5732 5735 5738 5740 5742 5742 5742 5743 5742 5742 5743 5743 5744 5744 5745 5745 5746 5747 5747 5748 5750 5751 5751 5752 5752 5752 5753 5754 5754 5755 5755 5755 5756 5756 5756 5755 5755 5754 5754 5754 5755 5755 5755 5754 5754 5755 5753 5751 5750 5749 5749 5748 5746 5746 5745 5744 5742 5741 5741 5741 5741 5741 5739 5738 5738
5709 5710 5711 5714 5716 5717 5719 5723 5724 5722 5723 5725 5724 5723 5722 5721 5720 5719 5721 5725 5726 5724 5727 5729 5730 5733 5735 5735 5736 5736 5737 5737 5738 5738 5739 5739 5740 5741 5741 5741 5742 5743 5744 5746 5747 5747 5748 5748 5749 5749 5750 5751 5751 5752 5752 5752 5753 5752 5751 5751 5750 5750 5750 5750 5750 5750 5750 5749 5749 5747 5745 5743 5743 5744 5744 5743 5741 5740 5739 5737 5736 5735 5734 5734 5733 5732 5731 5730
5703 5704 5705 5707 5710 5712 5714 5717 5717 5717 5718 5719 5718 5716 5715 5712 5712 5715 5718 5720 5721 5720 5723 5726 5726 5727 5728 5729 5731 5731 5732 5732 5733 5734 5734 5735 5736 5737 5737 5738 5739 5739 5740 5741 5742 5743 5743 5744 5745 5745 5746 5747 5747 5748 5748 5748 5748 5747 5747 5747 5746 5746 5744 5745 5745 5743 5743 5743 5742 5741 5739 5737 5739 5740 5738 5738 5736 5734 5734 5733 5732 5731 5729 5728 5727 5725 5725 5724
5697 5698 5699 5702 5704 5705 5708 5709 5710 5712 5712 5712 5712 5708 5704 5704 5708 5711 5712 5714 5716 5717 5719 5720 5721 5721 5722 5723 5725 5726 5727 5727 5728 5729 5729 5730 5731 5732 5734 5734 5735 5735 5736 5736 5737 5738 5739 5740 5741 5741 5742 5742 5743 5744 5743 5742 5742 5741 5741 5741 5741 5741 5740 5739 5739 5736 5735 5735 5735 5734 5732 5732 5735 5734 5732 5730 5728 5728 5728 5727 5726 5725 5724 5722 5721 5720 5720 5719
5690 5691 5692 5694 5696 5698 5701 5702 5705 5706 5705 5705 5704 5699 5696 5700 5704 5706 5707 5710 5712 5713 5715 5715 5715 5715 5715 5717 5719 5721 5722 5723 5724 5724 5725 5726 5727 5728 5729 5730 5730 5731 5731 5732 5733 5734 5734 5735 5736 5737 5737 5738 5738 5738 5737 5737 5736 5735 5735 5735 5735 5736 5735 5732 5731 5730 5729 5728 5729 5729 5727 5728 5730 5728 5725 5723 5721 5722 5721 5720 5719 5718 5717 5717 5716 5715 5714 5714
5684 5685 5686 5687 5690 5693 5694 5696 5699 5699 5698 5698 5694 5689 5691 5697 5700 5700 5703 5705 5705 5707 5710 5709 5709 5709 5709 5711 5713 5715 5716 5717 5718 5719 5719 5721 5721 5722 5724 5724 5725 5726 5726 5727 5728 5728 5729 5729 5730 5731 5732 5732 5731 5731 5731 5731 5730 5729 5729 5730 5730 5730 5728 5725 5724 5725 5724 5721 5723 5724 5722 5722 5723 5720 5719 5717 5716 5715 5714 5713 5712 5711 5711 5710 5709 5709 5708 5707
5677 5678 5679 5680 5684 5687 5688 5690 5692 5692 5691 5689 5683 5682 5688 5692 5693 5695 5697 5697 5697 5700 5703 5703 5704 5704 5704 5706 5707 5709 5710 5711 5712 5713 5714 5715 5715 5717 5718 5719 5719 5720 5721 5722 5721 5722 5723 5722 5723 5724 5726 5726 5726 5726 5725 5724 5724 5723 5724 5725 5724 5722 5721 5720 5718 5719 5719 5715 5716 5718 5717 5716 5715 5714 5713 5712 5711 5709 5707 5707 5706 5705 5705 5703 5703 5702 5701 5700
5671 5671 5672 5674 5677 5680 5682 5684 5684 5684 5683 5679 5675 5677 5683 5685 5687 5690 5691 5691 5692 5693 5696 5698 5698 5699 5699 5700 5701 5703 5703 5705 5706 5707 5708 5709 5710 5711 5712 5712 5713 5713 5713 5714 5714 5715 5716 5716 5715 5717 5718 5719 5720 5720 5719 5719 5719 5720 5719 5719 5718 5715 5714 5714 5713 5714 5713 5709 5708 5710 5711 5710 5709 5708 5708 5706 5705 5703 5701 5701 5701 5700 5700 5698 5697 5696 5694 5693
5665 5665 5666 5669 5671 5674 5677 5677 5676 5676 5673 5669 5669 5673 5677 5680 5682 5684 5686 5687 5687 5687 5690 5692 5692 5693 5694 5694 5695 5696 5697 5698 5700 5701 5703 5704 5705 5705 5706 5706 5706 5707 5707 5708 5708 5708 5709 5709 5709 5710 5711 5712 5712 5712 5713 5714 5714 5713 5712 5711 5712 5711 5709 5709 5708 5708 5706 5702 5701 5702 5703 5705 5704 5702 5700 5699 5699 5698 5695 5695 5694 5694 5694 5692 5690 5688 5687 5686
5659 5659 5659 5663 5666 5668 5670 5670 5668 5666 5663 5663 5666 5668 5671 5675 5677 5678 5680 5682 5681 5682 5684 5686 5688 5689 5689 5690 5689 5689 5690 5691 5693 5695 5696 5698 5699 5699 5700 5701 5702 5702 5702 5702 5702 5702 5702 5703 5704 5704 5704 5705 5706 5707 5707 5707 5706 5705 5705 5705 5706 5706 5705 5703 5702 5702 5699 5695 5695 5694 5694 5699 5700 5694 5690 5691 5694 5693 5690 5689 5688 5687 5686 5684 5682 5682 5681 5680
5652 5651 5652 5657 5660 5661 5663 5661 5659 5658 5657 5659 5663 5663 5665 5669 5671 5671 5673 5675 5676 5677 5679 5681 5682 5683 5684 5685 5684 5684 5684 5685 5687 5689 5690 5692 5694 5694 5695 5696 5697 5697 5696 5695 5696 5696 5696 5697 5699 5699 5698 5698 5700 5701 5701 5699 5698 5698 5698 5700 5701 5700 5698 5695 5692 5695 5694 5689 5689 5686 5683 5692 5697 5689 5683 5684 5687 5687 5685 5683 5682 5680 5678 5676 5675 5676 5674 5673
5643 5643 5646 5651 5653 5654 5656 5653 5652 5653 5652 5654 5657 5658 5660 5663 5664 5665 5666 5668 5670 5671 5673 5675 5676 5677 5678 5679 5679 5679 5679 5680 5681 5683 5685 5687 5688 5689 5689 5690 5690 5690 5689 5689 5689 5689 5689 5689 5691 5693 5693 5693 5693 5693 5693 5692 5692 5692 5692 5695 5696 5693 5691 5688 5684 5688 5687 5681 5682 5678 5673 5684 5692 5685 5680 5678 5678 5679 5678 5676 5673 5671 5670 5670 5669 5669 5666 5664
5635 5636 5640 5644 5645 5647 5647 5645 5646 5648 5648 5650 5652 5653 5655 5657 5658 5659 5660 5662 5663 5664 5667 5668 5670 5670 5671 5672 5673 5673 5674 5675 5675 5677 5679 5680 5682 5683 5683 5683 5683 5683 5683 5682 5682 5682 5682 5681 5683 5686 5686 5685 5685 5685 5686 5686 5686 5686 5687 5689 5688 5686 5686 5683 5679 5680 5677 5675 5676 5670 5665 5674 5682 5680 5678 5673 5669 5669 5670 5668 5664 5662 5663 5663 5661 5660 5657 5655
5627 5629 5632 5635 5637 5638 5638 5638 5640 5642 5643 5645 5646 5647 5650 5652 5653 5654 5655 5656 5657 5658 5660 5661 5663 5664 5665 5666 5667 5667 5668 5669 5669 5670 5672 5674 5675 5676 5676 5675 5676 5676 5676 5676 5676 5675 5675 5674 5675 5678 5677 5677 5678 5678 5679 5681 5681 5679 5680 5681 5680 5680 5679 5676 5674 5672 5667 5668 5670 5663 5659 5667 5672 5672 5671 5665 5661 5661 5661 5659 5658 5657 5656 5654 5652 5650 5648 5646
5620 5621 5623 5626 5628 5629 5630 5632 5635 5636 5636 5639 5640 5641 5644 5646 5647 5648 5649 5649 5650 5652 5654 5655 5656 5658 5659 5659 5661 5661 5661 5662 5662 5663 5666 5668 5669 5669 5668 5668 5668 5668 5669 5669 5668 5668 5668 5667 5667 5669 5669 5669 5671 5672 5673 5674 5673 5671 5673 5674 5674 5673 5672 5669 5667 5663 5658 5659 5661 5656 5655 5659 5663 5664 5661 5656 5654 5654 5651 5650 5651 5650 5647 5644 5642 5641 5640 5639
5611 5613 5616 5619 5620 5621 5622 5625 5628 5629 5631 5634 5634 5635 5637 5639 5640 5641 5642 5642 5644 5646 5647 5648 5650 5651 5652 5653 5654 5653 5654 5654 5654 5656 5660 5661 5661 5660 5660 5660 5661 5661 5661 5661 5660 5660 5660 5660 5660 5661 5661 5662 5664 5664 5664 5665 5665 5664 5666 5668 5667 5666 5665 5662 5658 5654 5652 5649 5647 5651 5651 5647 5652 5658 5652 5646 5648 5647 5643 5643 5642 5640 5637 5635 5634 5633 5632 5631
5604 5606 5609 5612 5613 5613 5615 5618 5621 5623 5625 5628 5627 5629 5631 5632 5633 5634 5635 5636 5637 5639 5640 5641 5643 5645 5646 5647 5647 5646 5647 5647 5647 5651 5653 5652 5652 5652 5652 5654 5654 5654 5654 5653 5652 5652 5651 5652 5654 5654 5654 5655 5656 5656 5656 5656 5656 5657 5658 5660 5662 5660 5657 5654 5649 5648 5648 5641 5637 5645 5644 5635 5641 5651 5644 5638 5639 5638 5636 5634 5632 5631 5630 5628 5626 5625 5623 5622
5596 5599 5602 5604 5605 5606 5609 5612 5614 5616 5618 5620 5620 5621 5623 5625 5626 5628 5630 5630 5631 5632 5634 5634 5637 5639 5639 5639 5639 5639 5640 5641 5642 5644 5644 5644 5644 5644 5645 5646 5647 5647 5647 5646 5645 5645 5643 5645 5649 5648 5647 5648 5648 5647 5648 5648 5647 5649 5650 5653 5655 5653 5648 5644 5641 5642 5641 5632 5630 5635 5632 5627 5634 5639 5634 5631 5631 5629 5627 5624 5623 5624 5622 5620 5618 5616 5616 5615
5588 5590 5593 5595 5597 5600 5602 5604 5606 5608 5610 5612 5612 5614 5617 5619 5621 5622 5623 5623 5624 5625 5626 5628 5631 5632 5631 5631 5631 5632 5634 5635 5635 5636 5635 5635 5636 5637 5637 5638 5639 5640 5640 5639 5639 5638 5636 5638 5642 5640 5639 5640 5640 5639 5639 5639 5638 5640 5642 5646 5647 5644 5640 5637 5635 5635 5631 5624 5624 5626 5621 5622 5629 5627 5623 5624 5622 5618 5616 5617 5617 5616 5613 5611 5610 5609 5609 5608
5581 5583 5585 5586 5589 5592 5594 5596 5598 5600 5602 5603 5604 5608 5611 5612 5614 5616 5616 5616 5618 5619 5620 5623 5625 5624 5622 5622 5623 5627 5629 5628 5627 5627 5627 5627 5628 5630 5630 5631 5633 5634 5633 5633 5632 5630 5630 5632 5633 5632 5630 5631 5633 5632 5630 5630 5629 5629 5634 5640 5640 5635 5634 5633 5630 5627 5622 5617 5618 5617 5611 5615 5623 5619 5614 5615 5612 5608 5608 5610 5609 5606 5602 5601 5601 5601 5601 5600
5574 5575 5576 5578 5580 5583 5585 5587 5590 5591 5593 5596 5599 5603 5604 5604 5607 5608 5607 5609 5611 5612 5614 5616 5616 5614 5613 5613 5617 5623 5623 5618 5617 5619 5619 5619 5621 5623 5624 5625 5627 5627 5626 5627 5625 5624 5624 5624 5625 5625 5619 5621 5627 5623 5619 5621 5619 5618 5627 5636 5634 5628 5628 5627 5622 5617 5615 5612 5609 5606 5604 5609 5614 5610 5605 5605 5604 5602 5602 5601 5598 5597 5594 5592 5592 5592 5591 5589
5565 5567 5569 5570 5572 5574 5577 5579 5580 5582 5587 5591 5593 5594 5595 5596 5598 5598 5598 5600 5602 5604 5605 5607 5607 5605 5605 5607 5611 5615 5612 5607 5608 5610 5610 5611 5614 5616 5617 5618 5619 5619 5619 5619 5618 5618 5618 5617 5617 5616 5610 5611 5617 5615 5611 5611 5607 5609 5623 5631 5626 5622 5621 5617 5611 5609 5609 5605 5599 5597 5599 5602 5601 5597 5596 5598 5597 5595 5593 5592 5591 5590 5588 5585 5584 5584 5582 5580